Bridgeport, WV

10:45 AM EST on February 24, 2017 (GMT -0500)
Benedum

Weather History for KCKB - January, 2014

Change the Weather History Date:

Sunday, January 12, 2014

  Actual Average Record
Temperature  
Mean Temperature 36 °F -  
Max Temperature 41 °F 36 °F 68 °F (2005)
Min Temperature 32 °F 16 °F -10 °F (1981)
Degree Days  
Heating Degree Days 28    
Moisture  
Dew Point 28 °F    
Average Humidity 70    
Maximum Humidity 82    
Minimum Humidity 61    
Precipitation  
Precipitation 0.00 in - - ()
Sea Level Pressure  
Sea Level Pressure 29.92 in    
Wind  
Wind Speed 10 mph (WSW)    
Max Wind Speed 16 mph    
Max Gust Speed 24 mph    
Visibility 10 miles    
Events      
Averages and records for this station are not official NWS values.
T = Trace of Precipitation, MM = Missing Value Source: NWS Daily Summary

Daily Weather History Graph

Daily Weather History Graph

Search for Another Location

Airport or City:

Trip Planner

Search our weather history database for the weather conditions in past years. The results will help you decide how hot, cold, wet, or windy it might be!

Date:

Astronomy

Jan. 12, 2014 Rise Set
Actual Time 7:39 AM EST 5:18 PM EST
Civil Twilight 7:10 AM EST 5:48 PM EST
Nautical Twilight 6:37 AM EST 6:21 PM EST
Astronomical Twilight 6:05 AM EST 6:53 PM EST
Moon 2:45 PM EST (1/12) 4:37 AM EST (1/12)
Length of Visible Light 10h 38m
Length of Day
9h 38m
Waxing Gibbous, 89% of the Moon is Illuminated
Jan 12
Waxing Gibbous
Jan 15
Full
Jan 24
Last Quarter
Jan 30
New
Feb 6
First Quarter

Hourly Weather History & Observations

Time (EST) Temp. Windchill Dew Point Humidity Pressure Visibility Wind Dir Wind Speed Gust Speed Precip Events Conditions
12:53 AM 39.9 °F 33.4 °F 32.0 °F 73% 29.72 in 10.0 mi West 10.4 mph 23.0 mph N/A   Overcast
1:04 AM 39.2 °F 30.8 °F 32.0 °F 75% 29.73 in 10.0 mi West 15.0 mph 20.7 mph N/A   Overcast
1:11 AM 39.2 °F 30.5 °F 32.0 °F 75% 29.73 in 10.0 mi West 16.1 mph 21.9 mph N/A   Overcast
1:22 AM 39.2 °F 30.8 °F 30.2 °F 70% 29.74 in 10.0 mi West 15.0 mph 24.2 mph N/A   Overcast
1:53 AM 37.9 °F 30.0 °F 30.0 °F 73% 29.75 in 10.0 mi West 12.7 mph 24.2 mph N/A   Overcast
2:14 AM 37.4 °F 28.2 °F 28.4 °F 70% 29.77 in 10.0 mi West 16.1 mph 21.9 mph N/A   Overcast
2:44 AM 37.4 °F 29.8 °F 28.4 °F 70% 29.79 in 10.0 mi WNW 11.5 mph 16.1 mph N/A   Overcast
2:53 AM 37.0 °F 30.4 °F 28.0 °F 70% 29.79 in 10.0 mi West 9.2 mph - N/A   Overcast
3:20 AM 37.4 °F 31.4 °F 26.6 °F 65% 29.80 in 10.0 mi West 8.1 mph 18.4 mph N/A   Overcast
3:53 AM 36.0 °F 29.0 °F 27.0 °F 70% 29.82 in 10.0 mi West 9.2 mph 18.4 mph N/A   Overcast
4:26 AM 35.6 °F 26.6 °F 26.6 °F 70% 29.84 in 10.0 mi West 13.8 mph 18.4 mph N/A   Overcast
4:51 AM 35.6 °F 29.9 °F 26.6 °F 70% 29.85 in 10.0 mi West 6.9 mph 18.4 mph N/A   Overcast
4:53 AM 36.0 °F 29.0 °F 27.0 °F 70% 29.85 in 10.0 mi WSW 9.2 mph 16.1 mph N/A   Overcast
5:53 AM 36.0 °F 28.0 °F 26.1 °F 67% 29.86 in 10.0 mi WSW 11.5 mph - N/A   Overcast
6:45 AM 35.6 °F 28.6 °F 26.6 °F 70% 29.87 in 10.0 mi WSW 9.2 mph - N/A   Overcast
6:53 AM 37.0 °F 30.4 °F 27.0 °F 67% 29.88 in 10.0 mi WSW 9.2 mph - N/A   Overcast
7:53 AM 37.0 °F 30.4 °F 27.0 °F 67% 29.92 in 10.0 mi West 9.2 mph - N/A   Overcast
8:53 AM 37.0 °F 28.9 °F 28.0 °F 70% 29.96 in 10.0 mi West 12.7 mph 19.6 mph N/A   Overcast
9:53 AM 37.0 °F 30.4 °F 28.0 °F 70% 29.99 in 10.0 mi West 9.2 mph 18.4 mph N/A   Overcast
10:53 AM 37.9 °F 30.0 °F 28.0 °F 68% 30.01 in 10.0 mi West 12.7 mph 17.3 mph N/A   Overcast
11:53 AM 37.9 °F 30.5 °F 28.0 °F 68% 30.01 in 10.0 mi West 11.5 mph - N/A   Overcast
12:53 PM 39.0 °F 32.8 °F 27.0 °F 62% 30.01 in 10.0 mi West 9.2 mph - N/A   Overcast
1:53 PM 39.0 °F 31.4 °F 28.0 °F 65% 30.02 in 10.0 mi WSW 12.7 mph 18.4 mph N/A   Overcast
2:53 PM 39.9 °F 32.9 °F 28.9 °F 65% 30.03 in 10.0 mi SW 11.5 mph - N/A   Mostly Cloudy
3:43 PM 41.0 °F 35.8 °F 28.4 °F 61% 30.04 in 10.0 mi SW 8.1 mph - N/A   Scattered Clouds
3:53 PM 41.0 °F 34.7 °F 28.9 °F 62% 30.05 in 10.0 mi SSW 10.4 mph - N/A   Partly Cloudy
4:53 PM 39.9 °F 35.1 °F 28.9 °F 65% 30.06 in 10.0 mi SSW 6.9 mph - N/A   Clear
5:53 PM 37.0 °F 34.5 °F 28.0 °F 70% 30.07 in 10.0 mi SSW 3.5 mph - N/A   Clear
6:53 PM 37.0 °F - 28.0 °F 70% 30.06 in 10.0 mi Calm Calm - N/A   Clear
7:53 PM 36.0 °F - 28.0 °F 73% 30.06 in 10.0 mi Calm Calm - N/A   Clear
8:53 PM 33.1 °F - 27.0 °F 78% 30.07 in 10.0 mi Calm Calm - N/A   Clear
9:53 PM 32.0 °F 28.7 °F 27.0 °F 82% 30.06 in 10.0 mi South 3.5 mph - N/A   Clear
10:53 PM 32.0 °F - 27.0 °F 82% 30.05 in 10.0 mi Calm Calm - N/A   Clear
11:53 PM 32.0 °F - 27.0 °F 82% 30.04 in 10.0 mi Calm Calm - N/A   Clear